When you browse on this site, cookies collect data to enhance your experience and personalize the content and advertising you see.
Visit our Privacy Policy to learn more. By continuing to use the site, you agree to this use of cookies and data.

Hourly Weather Knighton

Today, 8 July, Wednesday

Time Temperature Precipitation Wind Pressure Humidity
00:00 +13°C° 0 mm 4 mps 731 mmHg 97%
01:00 +13°C° 0.3 mm 4 mps 731 mmHg 97%
02:00 +13°C° 0.3 mm 4 mps 730 mmHg 97%
03:00 +13°C° 0.3 mm 4 mps 730 mmHg 97%
04:00 +13°C° 0 mm 3 mps 730 mmHg 97%
05:00 +13°C° 0 mm 3 mps 730 mmHg 97%
06:00 +14°C° 0 mm 2 mps 730 mmHg 97%
07:00 +14°C° 0.1 mm 2 mps 731 mmHg 96%
08:00 +14°C° 0.1 mm 1 mps 731 mmHg 96%
09:00 +14°C° 0.1 mm 1 mps 731 mmHg 95%
10:00 +15°C° 0.1 mm 1 mps 731 mmHg 92%
11:00 +16°C° 0.1 mm 1 mps 731 mmHg 89%
12:00 +16°C° 0.1 mm 1 mps 732 mmHg 86%
13:00 +16°C° 0.1 mm 1 mps 731 mmHg 88%
14:00 +16°C° 0.1 mm 1 mps 731 mmHg 91%
15:00 +15°C° 0.1 mm 1 mps 731 mmHg 93%
16:00 +15°C° 0.3 mm 1 mps 731 mmHg 94%
17:00 +15°C° 0.3 mm 1 mps 731 mmHg 95%
18:00 +15°C° 0.3 mm 2 mps 730 mmHg 97%
19:00 +15°C° 0.4 mm 2 mps 730 mmHg 97%
20:00 +14°C° 0.4 mm 3 mps 730 mmHg 97%
21:00 +14°C° 0.4 mm 4 mps 730 mmHg 97%
22:00 +14°C° 0 mm 4 mps 730 mmHg 96%
23:00 +13°C° 0 mm 5 mps 729 mmHg 95%

Tomorrow, 9 July, Thursday

Time Temperature Precipitation Wind Pressure Humidity
00:00 +13°C° 0 mm 5 mps 729 mmHg 95%
01:00 +13°C° 0.3 mm 5 mps 729 mmHg 95%
02:00 +13°C° 0.3 mm 5 mps 728 mmHg 96%
03:00 +13°C° 0.3 mm 5 mps 728 mmHg 97%
04:00 +14°C° 0.3 mm 4 mps 728 mmHg 97%
05:00 +14°C° 0.3 mm 4 mps 728 mmHg 97%
06:00 +14°C° 0.3 mm 4 mps 728 mmHg 97%
07:00 +14°C° 0.1 mm 3 mps 728 mmHg 96%
08:00 +14°C° 0.1 mm 3 mps 728 mmHg 95%
09:00 +14°C° 0.1 mm 3 mps 729 mmHg 94%
10:00 +16°C° 0.1 mm 3 mps 729 mmHg 91%
11:00 +17°C° 0.1 mm 3 mps 729 mmHg 89%
12:00 +17°C° 0.1 mm 3 mps 730 mmHg 86%
13:00 +17°C° 0.2 mm 3 mps 730 mmHg 88%
14:00 +16°C° 0.2 mm 3 mps 730 mmHg 89%
15:00 +16°C° 0.2 mm 3 mps 730 mmHg 91%
16:00 +14°C° 0.1 mm 3 mps 730 mmHg 92%
17:00 +13°C° 0.1 mm 3 mps 730 mmHg 93%
18:00 +13°C° 0.1 mm 2 mps 730 mmHg 95%
19:00 +13°C° 0 mm 2 mps 730 mmHg 95%
20:00 +12°C° 0 mm 2 mps 730 mmHg 95%
21:00 +12°C° 0 mm 2 mps 731 mmHg 95%
22:00 +10°C° 0 mm 2 mps 731 mmHg 95%
23:00 +10°C° 0 mm 1 mps 731 mmHg 96%

Day after tomorrow, 10 July, Friday

Time Temperature Precipitation Wind Pressure Humidity
00:00 +9°C° 0 mm 1 mps 731 mmHg 96%
01:00 +9°C° 0 mm 1 mps 731 mmHg 95%
02:00 +8°C° 0 mm 2 mps 731 mmHg 95%
03:00 +7°C° 0 mm 2 mps 731 mmHg 94%
04:00 +8°C° 0 mm 2 mps 732 mmHg 93%
05:00 +8°C° 0 mm 3 mps 732 mmHg 92%
06:00 +8°C° 0 mm 3 mps 732 mmHg 91%
07:00 +8°C° 0 mm 4 mps 733 mmHg 85%
08:00 +10°C° 0 mm 5 mps 733 mmHg 79%
09:00 +11°C° 0 mm 7 mps 733 mmHg 73%
10:00 +11°C° 0.1 mm 7 mps 734 mmHg 72%
11:00 +12°C° 0.1 mm 7 mps 734 mmHg 71%
12:00 +14°C° 0.1 mm 7 mps 734 mmHg 70%
13:00 +14°C° 0 mm 7 mps 734 mmHg 69%
14:00 +14°C° 0 mm 7 mps 734 mmHg 68%
15:00 +14°C° 0 mm 6 mps 735 mmHg 67%
16:00 +14°C° 0 mm 6 mps 735 mmHg 70%
17:00 +13°C° 0 mm 6 mps 735 mmHg 73%
18:00 +13°C° 0 mm 5 mps 735 mmHg 76%
19:00 +10°C° 0 mm 5 mps 736 mmHg 81%
20:00 +10°C° 0 mm 4 mps 736 mmHg 85%
21:00 +8°C° 0 mm 3 mps 737 mmHg 90%
22:00 +8°C° 0 mm 3 mps 737 mmHg 91%
23:00 +7°C° 0 mm 2 mps 737 mmHg 92%

11 July, Saturday

Time Temperature Precipitation Wind Pressure Humidity
00:00 +7°C° 0 mm 2 mps 737 mmHg 93%
01:00 +7°C° 0 mm 2 mps 738 mmHg 93%
02:00 +6°C° 0 mm 2 mps 738 mmHg 93%
03:00 +7°C° 0 mm 1 mps 738 mmHg 93%
04:00 +8°C° 0 mm 1 mps 738 mmHg 92%
05:00 +9°C° 0 mm 1 mps 738 mmHg 91%
06:00 +10°C° 0 mm 1 mps 739 mmHg 90%
07:00 +10°C° 0 mm 2 mps 739 mmHg 85%
08:00 +13°C° 0 mm 2 mps 740 mmHg 79%
09:00 +13°C° 0 mm 3 mps 740 mmHg 73%
10:00 +14°C° 0 mm 3 mps 740 mmHg 70%
11:00 +16°C° 0 mm 3 mps 740 mmHg 67%
12:00 +17°C° 0 mm 2 mps 740 mmHg 64%
13:00 +17°C° 0 mm 3 mps 740 mmHg 65%
14:00 +17°C° 0 mm 3 mps 740 mmHg 66%
15:00 +17°C° 0 mm 3 mps 740 mmHg 67%
16:00 +16°C° 0 mm 3 mps 740 mmHg 70%
17:00 +16°C° 0 mm 3 mps 740 mmHg 72%
18:00 +15°C° 0 mm 2 mps 740 mmHg 75%
19:00 +13°C° 0 mm 2 mps 740 mmHg 79%
20:00 +11°C° 0 mm 1 mps 740 mmHg 83%
21:00 +9°C° 0 mm 1 mps 740 mmHg 88%
22:00 +9°C° 0 mm 1 mps 740 mmHg 88%
23:00 +7°C° 0 mm 0 mps 740 mmHg 88%

12 July, Sunday

Time Temperature Precipitation Wind Pressure Humidity
00:00 +7°C° 0 mm 0 mps 740 mmHg 88%
01:00 +6°C° 0 mm 0 mps 740 mmHg 89%
02:00 +6°C° 0 mm 0 mps 740 mmHg 89%
03:00 +6°C° 0 mm 0 mps 740 mmHg 90%
04:00 +7°C° 0 mm 0 mps 740 mmHg 89%
05:00 +8°C° 0 mm 0 mps 740 mmHg 88%
06:00 +9°C° 0 mm 0 mps 740 mmHg 86%
07:00 +10°C° 0 mm 0 mps 740 mmHg 82%
08:00 +13°C° 0 mm 1 mps 740 mmHg 77%
09:00 +14°C° 0 mm 1 mps 740 mmHg 73%
10:00 +15°C° 0 mm 1 mps 740 mmHg 68%
11:00 +16°C° 0 mm 2 mps 740 mmHg 64%
12:00 +17°C° 0 mm 2 mps 740 mmHg 59%
13:00 +17°C° 0 mm 2 mps 740 mmHg 61%
14:00 +18°C° 0 mm 2 mps 740 mmHg 62%
15:00 +18°C° 0 mm 3 mps 740 mmHg 63%
16:00 +17°C° 0 mm 3 mps 740 mmHg 67%
17:00 +17°C° 0 mm 3 mps 739 mmHg 71%
18:00 +16°C° 0 mm 2 mps 739 mmHg 75%
19:00 +15°C° 0 mm 2 mps 739 mmHg 79%
20:00 +13°C° 0 mm 1 mps 739 mmHg 83%
21:00 +11°C° 0 mm 1 mps 739 mmHg 87%
22:00 +10°C° 0 mm 1 mps 738 mmHg 87%
23:00 +10°C° 0 mm 1 mps 738 mmHg 88%

13 July, Monday

Time Temperature Precipitation Wind Pressure Humidity
00:00 +9°C° 0 mm 1 mps 738 mmHg 88%
01:00 +9°C° 0 mm 1 mps 737 mmHg 88%
02:00 +9°C° 0 mm 1 mps 737 mmHg 88%
03:00 +9°C° 0 mm 1 mps 736 mmHg 87%
04:00 +9°C° 0 mm 1 mps 736 mmHg 87%
05:00 +10°C° 0 mm 1 mps 736 mmHg 86%
06:00 +11°C° 0 mm 1 mps 736 mmHg 85%
07:00 +12°C° 0 mm 2 mps 736 mmHg 81%
08:00 +14°C° 0 mm 2 mps 736 mmHg 76%
09:00 +14°C° 0 mm 3 mps 736 mmHg 72%
10:00 +14°C° 0 mm 3 mps 736 mmHg 72%
11:00 +15°C° 0 mm 4 mps 735 mmHg 73%
12:00 +15°C° 0 mm 4 mps 735 mmHg 74%
13:00 +15°C° 0.1 mm 4 mps 735 mmHg 76%
14:00 +14°C° 0.1 mm 3 mps 734 mmHg 78%
15:00 +14°C° 0.1 mm 3 mps 734 mmHg 80%
16:00 +13°C° 0.3 mm 3 mps 733 mmHg 84%
17:00 +13°C° 0.3 mm 2 mps 733 mmHg 88%
18:00 +10°C° 0.3 mm 2 mps 733 mmHg 93%
19:00 +10°C° 0 mm 2 mps 733 mmHg 93%
20:00 +10°C° 0 mm 2 mps 732 mmHg 94%
21:00 +10°C° 0 mm 2 mps 732 mmHg 94%
22:00 +9°C° 0 mm 2 mps 732 mmHg 95%
23:00 +10°C° 0 mm 1 mps 732 mmHg 95%
Show more